EW8081 Weather Reports


Display with metric or nautical units.
time (UTC)temp
F
wind
direction
speed
MPH
gust
MPH
rain 1hr
in
rain 24hr
in
rain mn
in
humidity
%
barometer
mb
20260509223047 62 303 5.0 13.0 0.00 0.00 0.00 70 1027.1
20260509221554 59 297 7.0 13.0 0.00 0.00 0.00 75 1027.0
20260509220037 56 320 7.0 12.0 0.00 0.00 0.00 79 1027.0
20260509214533 55 310 7.0 12.0 0.00 0.00 0.00 81 1026.9
20260509213032 55 293 6.0 14.0 0.00 0.00 0.00 82 1026.7
20260509211530 54 307 6.0 13.0 0.00 0.00 0.00 82 1026.6
20260509210032 54 293 7.0 15.0 0.00 0.00 0.00 82 1026.1
20260509204524 54 304 9.0 14.0 0.00 0.00 0.00 82 1026.1
20260509203020 55 306 8.0 13.0 0.00 0.00 0.00 81 1025.8
20260509201519 55 326 7.0 15.0 0.00 0.00 0.00 81 1025.6
20260509200016 55 291 7.0 13.0 0.00 0.00 0.00 80 1025.5
20260509194513 56 303 7.0 14.0 0.00 0.00 0.00 79 1025.2
20260509193014 56 301 8.0 15.0 0.00 0.00 0.00 78 1025.1
20260509191609 57 290 7.0 13.0 0.00 0.00 0.00 78 1024.9
20260509190007 57 286 7.0 13.0 0.00 0.00 0.00 78 1024.8
20260509184505 56 330 8.0 14.0 0.00 0.00 0.00 78 1024.8
20260509183003 56 300 8.0 12.0 0.00 0.00 0.00 78 1024.7
20260509181501 56 300 5.0 11.0 0.00 0.00 0.00 79 1024.6
20260509174556 56 292 5.0 11.0 0.00 0.00 0.00 80 1024.7
20260509173053 56 307 6.0 9.0 0.00 0.00 0.00 79 1024.5
20260509171554 56 299 5.0 9.0 0.00 0.00 0.00 79 1024.6
20260509170054 56 313 5.0 10.0 0.00 0.00 0.00 79 1024.6
20260509164551 56 318 5.0 10.0 0.00 0.00 0.00 80 1024.5
20260509163045 56 289 4.0 8.0 0.00 0.00 0.00 80 1024.5
20260509161552 56 299 3.0 10.0 0.00 0.00 0.00 79 1024.5
20260509160040 56 297 4.0 9.0 0.00 0.00 0.00 79 1024.6
20260509154538 56 287 4.0 9.0 0.00 0.00 0.00 79 1024.6
20260509153036 56 291 4.0 10.0 0.00 0.00 0.00 79 1024.7
20260509151537 56 289 4.0 9.0 0.00 0.00 0.00 79 1024.7
20260509150036 56 300 3.0 9.0 0.00 0.00 0.00 79 1024.6
20260509144534 57 282 4.0 8.0 0.00 0.00 0.00 79 1024.6
20260509143029 57 303 4.0 10.0 0.00 0.00 0.00 79 1024.8
20260509141526 57 302 4.0 9.0 0.00 0.00 0.00 79 1024.6
20260509140023 57 310 4.0 8.0 0.00 0.00 0.00 79 1024.7
20260509134523 57 305 5.0 9.0 0.00 0.00 0.00 79 1024.6
20260509133022 57 293 4.0 8.0 0.00 0.00 0.00 79 1024.6
20260509131527 57 302 3.0 7.0 0.00 0.00 0.00 79 1024.7
20260509130021 57 309 3.0 8.0 0.00 0.00 0.00 79 1024.7
20260509124523 58 291 3.0 7.0 0.00 0.00 0.00 78 1024.8
20260509123020 58 297 3.0 7.0 0.00 0.00 0.00 78 1024.7
20260509121526 58 293 3.0 7.0 0.00 0.00 0.00 78 1024.9
20260509120022 58 287 2.0 5.0 0.00 0.00 0.00 78 1024.8
20260509114525 58 293 2.0 4.0 0.00 0.00 0.00 79 1024.8
20260509113018 57 286 2.0 4.0 0.00 0.00 0.00 81 1024.5
20260509111517 57 289 2.0 4.0 0.00 0.00 0.00 81 1024.7
20260509110017 57 282 1.0 3.0 0.00 0.00 0.00 80 1024.7
20260509104517 57 278 2.0 4.0 0.00 0.00 0.00 81 1024.6
20260509103014 57 259 2.0 4.0 0.00 0.00 0.00 80 1024.5
20260509101517 56 222 1.0 3.0 0.00 0.00 0.00 79 1024.4
20260509100020 57 222 0.0 3.0 0.00 0.00 0.00 77 1024.4
20260509094515 58 222 1.0 3.0 0.00 0.00 0.00 76 1024.3
20260509093010 59 220 0.0 3.0 0.00 0.00 0.00 75 1024.3
20260509091517 59 220 0.0 3.0 0.00 0.00 0.00 75 1024.1
20260509090007 60 209 0.0 5.0 0.00 0.00 0.00 75 1023.9
20260509084511 60 182 2.0 5.0 0.00 0.00 0.00 74 1023.8
20260509083004 60 207 1.0 4.0 0.00 0.00 0.00 73 1023.7
20260509081502 61 195 2.0 7.0 0.00 0.00 0.00 73 1023.6
20260509080001 61 198 1.0 4.0 0.00 0.00 0.00 71 1023.4
20260509074607 62 197 1.0 7.0 0.00 0.00 0.00 71 1023.2
20260509073103 62 203 1.0 6.0 0.00 0.00 0.00 70 1023.1
20260509071608 63 203 1.0 7.0 0.00 0.00 0.00 67 1022.8
20260509070100 64 193 3.0 6.0 0.00 0.00 0.00 65 1022.8
20260509064617 65 185 2.0 6.0 0.00 0.00 0.00 62 1022.5
20260509063058 67 188 4.0 7.0 0.00 0.00 0.00 58 1022.4
20260509061622 73 187 3.0 7.0 0.00 0.00 0.00 49 1022.2
20260509060057 73 178 3.0 6.0 0.00 0.00 0.00 49 1022.0
20260509054556 74 190 3.0 8.0 0.00 0.00 0.00 48 1022.0
20260509053054 74 167 2.0 7.0 0.00 0.00 0.00 50 1021.9
20260509051552 74 189 3.0 9.0 0.00 0.00 0.00 49 1022.0
20260509050050 74 164 4.0 10.0 0.00 0.00 0.00 48 1021.8
20260509044549 74 172 3.0 10.0 0.00 0.00 0.00 47 1021.8
20260509043056 75 147 5.0 9.0 0.00 0.00 0.00 47 1021.8
20260509041548 74 184 4.0 12.0 0.00 0.00 0.00 49 1021.9
20260509040047 74 204 4.0 10.0 0.00 0.00 0.00 47 1021.8
20260509034553 74 194 3.0 10.0 0.00 0.00 0.00 47 1021.7
20260509033051 73 155 5.0 11.0 0.00 0.00 0.00 47 1021.7
20260509031543 75 178 5.0 9.0 0.00 0.00 0.00 46 1022.0
20260509030043 74 193 6.0 15.0 0.00 0.00 0.00 47 1022.2
20260509024542 74 183 4.0 9.0 0.00 0.00 0.00 46 1022.4
20260509023039 75 209 4.0 11.0 0.00 0.00 0.00 46 1022.6
20260509021540 76 196 4.0 10.0 0.00 0.00 0.00 46 1022.7
20260509020036 77 207 4.0 9.0 0.00 0.00 0.00 43 1022.8
20260509014535 77 229 2.0 9.0 0.00 0.00 0.00 40 1023.0
20260509013033 76 201 4.0 8.0 0.00 0.00 0.00 42 1023.1
20260509011530 75 300 5.0 11.0 0.00 0.00 0.00 44 1023.1
20260509010033 74 255 2.0 7.0 0.00 0.00 0.00 44 1023.0
20260509004533 72 286 2.0 9.0 0.00 0.00 0.00 46 1023.2
20260509003022 71 281 6.0 11.0 0.00 0.00 0.00 47 1023.3
20260509001524 71 295 4.0 10.0 0.00 0.00 0.00 47 1023.5
20260509000016 69 233 4.0 12.0 0.00 0.00 0.00 50 1023.4
20260508234513 68 301 5.0 12.0 0.00 0.00 0.00 51 1023.5
20260508233010 67 355 7.0 14.0 0.00 0.00 0.00 52 1023.3
20260508231508 66 324 3.0 11.0 0.00 0.00 0.00 55 1023.3
20260508230004 65 323 6.0 13.0 0.00 0.00 0.00 57 1023.3
20260508224600 64 300 6.0 15.0 0.00 0.00 0.00 58 1023.4